Location: Newark
(13.6797°N, 8.5297°E)
Time: 23:34:44
(UTC+00:00)

Vanguard 1 Rocket - All Passes

Search period start: 22 January 2020 00:00
Search period end: 01 February 2020 00:00
Orbit: 650 x 4226 km, 34.3° (Epoch: 22 January)

Date Brightness Start Highest point End Pass type
(mag) Time Alt. Az. Time Alt. Az. Time Alt. Az.
22 Jan - 06:10:34 10° SSW 06:14:56 34° SE 06:21:22 10° ENE daylight
22 Jan - 08:34:21 10° W 08:40:37 46° NNW 08:52:16 10° NE daylight
22 Jan - 11:01:30 10° WNW 11:11:21 32° N 11:28:18 10° ENE daylight
22 Jan - 13:29:04 10° NW 13:45:50 48° NNE 14:10:36 10° E daylight
22 Jan - 15:57:21 10° NW 16:20:51 87° NE 16:45:54 10° SE daylight
22 Jan - 18:30:19 10° WNW 18:53:52 43° SW 19:12:50 10° SSE visible
23 Jan - 05:03:01 10° SSE 05:04:26 11° SE 05:05:56 10° ESE visible
23 Jan - 07:23:28 10° WSW 07:28:45 71° NNW 07:38:10 10° NE daylight
23 Jan - 09:49:42 10° WNW 09:57:18 31° N 10:10:35 10° NE daylight
23 Jan - 12:17:05 10° NW 12:30:10 38° NNE 12:51:37 10° E daylight
23 Jan - 14:44:25 10° NW 15:04:51 69° NNE 15:31:06 10° ESE daylight
23 Jan - 17:14:23 10° WNW 17:38:52 62° SW 18:01:22 10° SE visible
23 Jan - 19:54:45 10° W 20:10:54 21° SW 20:23:54 10° S visible
24 Jan - 06:13:14 10° SW 06:17:46 55° SE 06:24:44 10° ENE daylight
24 Jan - 08:38:09 10° W 08:44:13 35° NNW 08:54:53 10° NE daylight
24 Jan - 11:05:20 10° NW 11:15:15 31° N 11:32:05 10° ENE daylight
24 Jan - 13:32:12 10° NW 13:49:03 53° NNE 14:14:22 10° E daylight
24 Jan - 16:00:15 10° WNW 16:23:17 82° SW 16:48:32 10° SE daylight
24 Jan - 18:34:20 10° W 18:56:15 35° SW 19:14:37 10° SSE visible
25 Jan - 05:03:57 10° S 05:07:16 20° SE 05:11:09 10° E visible
25 Jan - 07:26:57 10° W 07:32:05 49° NNW 07:40:51 10° NE daylight
25 Jan - 09:53:42 10° NW 10:01:10 28° N 10:13:44 10° NE daylight
25 Jan - 12:20:27 10° NW 12:33:45 41° NNE 12:55:45 10° E daylight
25 Jan - 14:47:18 10° NW 15:07:32 78° NE 15:34:07 10° ESE daylight
25 Jan - 17:17:42 10° WNW 17:41:10 52° SW 18:03:28 10° SSE visible
25 Jan - 20:02:03 10° WSW 20:13:58 15° SW 20:24:11 10° SSW visible
26 Jan - 06:16:14 10° SW 06:20:48 90° S 06:27:48 10° ENE daylight
26 Jan - 08:42:07 10° WNW 08:47:57 28° N 08:57:35 10° NE daylight
26 Jan - 11:09:00 10° NW 11:19:03 32° NNE 11:36:08 10° ENE daylight
26 Jan - 13:35:12 10° NW 13:52:04 60° NNE 14:17:53 10° ESE daylight
26 Jan - 16:03:15 10° WNW 16:25:41 71° SW 16:50:54 10° SE daylight
26 Jan - 18:39:02 10° W 18:58:51 28° SW 19:16:06 10° S visible
27 Jan - 05:06:10 10° SSW 05:10:09 34° SE 05:15:02 10° ENE visible
27 Jan - 07:30:41 10° W 07:35:34 34° NNW 07:43:27 10° NE daylight
27 Jan - 09:57:39 10° NW 10:05:03 26° N 10:17:13 10° ENE daylight
27 Jan - 12:23:40 10° NW 12:37:05 45° NNE 12:59:45 10° E daylight
27 Jan - 14:50:14 10° NW 15:10:06 89° NE 15:36:51 10° SE daylight
27 Jan - 17:21:22 10° WNW 17:43:36 43° SW 18:05:20 10° SSE visible
27 Jan - 20:13:33 10° SW 20:17:33 11° SW 20:21:19 10° SSW visible
28 Jan - 03:57:37 10° SSE 03:59:26 12° SE 04:01:14 10° ESE visible
28 Jan - 06:19:32 10° WSW 06:24:00 56° NNW 06:30:39 10° NE daylight
28 Jan - 08:46:13 10° NW 08:51:46 23° N 09:00:26 10° NE daylight
28 Jan - 11:12:29 10° NW 11:22:42 34° NNE 11:40:18 10° ENE daylight
28 Jan - 13:38:10 10° NW 13:54:52 69° NNE 14:21:05 10° ESE daylight
28 Jan - 16:06:27 10° WNW 16:28:06 60° SW 16:53:02 10° SE daylight
28 Jan - 18:44:42 10° W 19:01:49 22° SW 19:17:11 10° S visible
29 Jan - 05:08:51 10° SW 05:13:09 62° SE 05:18:25 10° ENE visible
29 Jan - 07:34:39 10° WNW 07:39:12 25° NNW 07:46:01 10° NE daylight
29 Jan - 10:01:26 10° NW 10:08:52 25° NNE 10:21:01 10° ENE daylight
29 Jan - 12:26:45 10° NW 12:40:13 52° NNE 13:03:30 10° E daylight
29 Jan - 14:53:14 10° WNW 15:12:38 80° SW 15:39:18 10° SE daylight
29 Jan - 17:25:30 10° W 17:46:14 35° SW 18:06:56 10° SSE visible
30 Jan - 03:58:53 10° SSW 04:02:29 22° SE 04:06:03 10° E visible
30 Jan - 06:23:08 10° W 06:27:22 36° NNW 06:33:20 10° NE daylight
30 Jan - 08:50:19 10° NW 08:55:37 20° N 09:03:33 10° NE daylight
30 Jan - 11:15:45 10° NW 11:26:10 37° NNE 11:44:27 10° E daylight
30 Jan - 13:41:07 10° NW 13:57:33 80° NE 14:23:59 10° ESE daylight
30 Jan - 16:09:54 10° WNW 16:30:39 50° SW 16:54:55 10° SSE daylight
30 Jan - 18:51:50 10° WSW 19:05:14 16° SW 19:17:35 10° S visible
31 Jan - 05:11:56 10° WSW 05:16:16 75° NNW 05:21:31 10° NE visible
31 Jan - 07:38:50 10° NW 07:42:56 19° N 07:48:38 10° NE daylight
31 Jan - 10:05:01 10° NW 10:12:36 26° NNE 10:25:06 10° ENE daylight
31 Jan - 12:29:45 10° NW 12:43:09 59° NNE 13:06:58 10° ESE daylight
31 Jan - 14:56:22 10° WNW 15:15:11 68° SW 15:41:29 10° SE daylight
31 Jan - 17:30:19 10° W 17:49:10 28° SW 18:08:16 10° SSE visible
